FLOCK 4Q 15

导读

FLOCK 4Q 15是美国Planet Labs(行星实验室)研发部署的“鸽群”(FLOCK)星座卫星,于协调世界时2023年11月11日8时发射入轨。作为SuperDove系列遥感卫星的一员,它配备多光谱成像载荷,可提供高分辨率对地观测数据,服务农业监测、环境变化研究、资源管理与地理信息服务等领域,补充了现有近地遥感星座的观测能力,延续了 Planet 打造全球 daily 成像卫星网络的布局。

Basic Information
目录编号:
58319
目录名称:
FLOCK 4Q 15
国际标识:
2023-174BR
轨道中心:
EARTH
卫星名称:
FLOCK 4Q 15
卫星全名:
--
卫星状态:
已陨落 最后检测时间 2026-06-01
发射日期:
2023-11-11 UTC
国别 :
美国 (US)
星等 :
--
Orbit Information
数据来源 国际轨道数据
星历时间: 2026-06-01T07:55:44+0800
轨道信息已过期102天
半长轴: 6565.603km
偏心率: 0.0016578
轨道倾角: 97.359°
近地点辐角 268.092°
升交点赤经 248.494°
平近点角 91.848°
近地点: 176.581km
远地点: 198.351km
周期: 88.241分钟
每日圈数: 16.318901
Detailed Information
使用方式:
暂无
Miss Distance Evolution Trend with All Objects
Collision Probability Evolution Trend with All Objects